This is the latest recevied weather packets stored in our database for station/object N1UNH. If no packets are shown the sender has not sent any weather packets the latest 1 day(s).
| Time | Temp. | Humidity | Pressure | Rain* | Wind** | Luminosity | Snow |
|---|---|---|---|---|---|---|---|
| 1778069009 | 15° C | 85% | 1014.1 hPa | 0 mm | - | 55 W/m² | - |
| 1778068706 | 15° C | 84% | 1014.2 hPa | 0 mm | - | 78 W/m² | - |
| 1778067195 | 13.89° C | 87% | 1014.2 hPa | 0 mm | - | 58 W/m² | - |
| 1778066286 | 13.33° C | 87% | 1014.4 hPa | 0 mm | - | 58 W/m² | - |
| 1778065681 | 12.78° C | 88% | 1014.3 hPa | 0 mm | - | 60 W/m² | - |
| 1778065378 | 12.78° C | 88% | 1014.3 hPa | 0 mm | - | 64 W/m² | - |
| 1778064167 | 12.22° C | 89% | 1014.6 hPa | 0 mm | - | 41 W/m² | - |
| 1778063864 | 12.22° C | 88% | 1014.7 hPa | 0 mm | - | 32 W/m² | - |
| 1778063561 | 12.22° C | 89% | 1014.3 hPa | 0 mm | - | 37 W/m² | - |
| 1778062957 | 12.22° C | 89% | 1014.5 hPa | 0 mm | - | 19 W/m² | - |
| 1778062350 | 12.22° C | 89% | 1014.2 hPa | 0 mm | - | 17 W/m² | - |
| 1778062048 | 12.22° C | 89% | 1014.6 hPa | 0 mm | - | 19 W/m² | - |
| 1778061746 | 12.22° C | 89% | 1014.2 hPa | 0 mm | - | 15 W/m² | - |
| 1778061444 | 12.22° C | 89% | 1014.4 hPa | 0 mm | - | 7 W/m² | - |
| 1778061140 | 12.22° C | 89% | 1014.1 hPa | 0 mm | - | 7 W/m² | - |
| 1778060535 | 12.22° C | 89% | 1014.2 hPa | 0 mm | - | 3 W/m² | - |
| 1778060234 | 12.22° C | 89% | 1014.5 hPa | 0 mm | - | 2 W/m² | - |
| 1778059930 | 12.22° C | 89% | 1014.4 hPa | 0 mm | - | 1 W/m² | - |
| 1778057811 | 12.22° C | 88% | 1014.3 hPa | 0 mm | - | 0 W/m² | - |
| 1778057204 | 12.22° C | 88% | 1014.4 hPa | 0 mm | - | 0 W/m² | - |
| 1778056296 | 12.78° C | 87% | 1014.2 hPa | 0 mm | - | 0 W/m² | - |
| 1778055992 | 12.78° C | 87% | 1014.4 hPa | 0 mm | - | 0 W/m² | - |
| 1778055688 | 12.78° C | 87% | 1014.4 hPa | 0 mm | - | 0 W/m² | - |
| 1778054478 | 12.78° C | 87% | 1014 hPa | 0 mm | - | 0 W/m² | - |
| 1778054176 | 13.33° C | 86% | 1014.4 hPa | 0 mm | - | 0 W/m² | - |
* Rain latest hour (hover to see other rain measurements)
** Current wind speed in m/s (hover to see current wind gust speed)